Voltar ao catálogo

STARLINK-35687

AtivoComunicaçõesVLEO
NORAD 66524·PAYLOAD·🇺🇸 United States

Lançado Nov 19, 2025 de Cape Canaveral Space Force Station

Loading…

Próximas Passagens (próximas 24 horas)

TLE

AtualizadoSource: CelesTrak SupGP

Época: Sep 15, 2026, 02:51 UTC

1 66524C 25265J   26258.11923611  .00010347  00000+0  37495-3 0  2583
2 66524  43.0029 288.5269 0001524 256.5097 325.1076 15.27556500    10

Acompanhe STARLINK-35687 em tempo real com AllMySat

Download on the App Store